Kosmos-1085

operational
NORAD ID: 11300 Int'l Des: 1979-024 Owner: GUKOSR Country: SU
LEOCIRCULAR

About Kosmos-1085

Description loading...

Live Position

Loading 3D Globe...

Upcoming Passes

Altitude History

Altitude vs Time

uPlot chart will show altitude changes over time

Two-Line Element Set

1 11300U 79024E 26061.45702731 .00000006 00000-0 15333-3 0 9995
2 11300 74.0361 318.8918 0025181 261.8764 208.7397 12.45291738135004
Epoch: Mar 2, 2026 • Age: 24 hours

Current Status

Altitude 1503.8 km
Velocity 7.11 km/s
Sub-Earth Point 37.83°N, 168.92°E
Launch Date Mar 15, 1979
Age 46.9 years
Type other

Technical Details

Classification Payload
Mass 60.00 kg
Dry Mass 60.00 kg
Total Mass 60.00 kg
Length 0.80 m
Diameter 0.80 m
Span 0.80 m
Shape Poly
Manufacturer NPOPM
Bus Type Strela-1 11F625
Phase Status In Orbit
Owner/State GUKOSR/SU

Large Constellations

Loading constellations...